EFOU Weather Reports


time (UTC)temp
C
wind
direction
speed
KPH
gust
KPH
rain 1hr
cm
rain 24hr
cm
rain mn
cm
humidity
%
barometer
mb
20260508120728 10 293 22.5 33.8 0.00 0.00 0.00 38 1025.8
20260508112728 9 284 17.7 27.4 0.00 0.00 0.00 40 1025.8
20260508110728 9 296 20.9 30.6 0.00 0.00 0.00 41 1025.7
20260508104728 9 275 16.1 24.1 0.00 0.00 0.00 44 1025.6
20260508102727 9 280 17.7 25.7 0.00 0.00 0.00 49 1025.4
20260508100727 9 271 16.1 22.5 0.00 0.00 0.00 50 1025.3
20260508094727 9 294 14.5 22.5 0.00 0.00 0.00 53 1025.2
20260508092727 8 295 14.5 22.5 0.00 0.00 0.00 53 1025.1
20260508090727 9 295 14.5 25.7 0.00 0.00 0.00 54 1025.0
20260508084727 8 311 14.5 22.5 0.00 0.00 0.00 53 1024.8
20260508082727 8 284 12.9 17.7 0.00 0.00 0.00 55 1024.7
20260508080727 8 283 12.9 20.9 0.00 0.00 0.00 58 1024.5
20260508074727 8 298 14.5 20.9 0.00 0.00 0.00 57 1024.2
20260508072727 8 297 12.9 19.3 0.00 0.00 0.00 57 1024.0
20260508070727 7 275 12.9 19.3 0.00 0.00 0.00 61 1023.7
20260508064727 7 311 11.3 19.3 0.00 0.00 0.00 60 1023.5
20260508062726 7 311 11.3 17.7 0.00 0.00 0.00 58 1023.3
20260508060727 7 301 12.9 19.3 0.00 0.00 0.00 59 1023.1
20260508054727 6 318 9.7 16.1 0.00 0.00 0.00 65 1022.9
20260508052727 6 320 9.7 16.1 0.00 0.00 0.00 70 1022.6
20260508050726 6 299 8.0 12.9 0.00 0.00 0.00 77 1022.4
20260508044727 5 292 8.0 12.9 0.00 0.00 0.00 83 1022.3
20260508042726 4 286 8.0 12.9 0.00 0.00 0.00 89 1022.1
20260508040726 3 270 6.4 9.7 0.00 0.00 0.00 93 1021.9
20260508034726 3 257 8.0 12.9 0.00 0.00 0.00 94 1021.8
20260508032726 2 265 6.4 9.7 0.00 0.00 0.00 94 1021.6
20260508030726 2 268 9.7 14.5 0.00 0.00 0.00 95 1021.4
20260508024726 2 253 8.0 12.9 0.00 0.00 0.00 95 1021.3
20260508022726 1 270 8.0 12.9 0.00 0.00 0.00 94 1021.1
20260508020726 1 275 8.0 14.5 0.00 0.00 0.00 93 1020.9
20260508014726 1 252 9.7 16.1 0.00 0.00 0.00 94 1020.6
20260508012726 1 258 8.0 14.5 0.00 0.00 0.00 93 1020.5
20260508010726 1 256 9.7 12.9 0.00 0.00 0.00 91 1020.4
20260508004725 1 250 9.7 14.5 0.00 0.00 0.00 90 1020.2
20260508002726 1 235 9.7 12.9 0.00 0.00 0.00 88 1020.1
20260508000725 0 250 9.7 12.9 0.00 0.00 0.00 90 1020.1
20260507234725 0 257 6.4 9.7 0.00 0.00 0.00 88 1020.0
20260507232726 1 301 4.8 6.4 0.00 0.00 0.00 87 1019.9
20260507230725 1 254 6.4 9.7 0.00 0.00 0.00 88 1019.5
20260507224725 1 251 8.0 11.3 0.00 0.00 0.00 90 1019.4
20260507222725 0 261 3.2 6.4 0.00 0.00 0.00 87 1019.1
20260507220725 0 219 3.2 4.8 0.00 0.00 0.00 88 1019.1
20260507214725 1 350 1.6 3.2 0.00 0.00 0.00 90 1018.8
20260507212725 0 184 4.8 6.4 0.00 0.00 0.00 88 1018.6
20260507210725 0 203 3.2 4.8 0.00 0.00 0.00 90 1018.4
20260507204725 2 325 3.2 3.2 0.00 0.00 0.00 81 1018.0
20260507202725 1 319 1.6 3.2 0.00 0.00 0.00 79 1018.1
20260507200725 2 311 3.2 4.8 0.00 0.00 0.00 79 1017.9
20260507194725 2 302 3.2 3.2 0.00 0.00 0.00 79 1017.8
20260507192724 3 305 4.8 6.4 0.00 0.00 0.00 75 1017.6
20260507190724 4 339 4.8 6.4 0.00 0.00 0.00 72 1017.5
20260507184725 5 329 11.3 12.9 0.00 0.00 0.00 69 1017.4
20260507182724 5 329 9.7 11.3 0.00 0.00 0.00 69 1017.3
20260507180724 5 1 9.7 14.5 0.00 0.00 0.00 69 1017.1
20260507174724 6 359 8.0 12.9 0.00 0.00 0.00 68 1017.0
20260507172724 6 356 9.7 12.9 0.00 0.00 0.00 69 1016.9
20260507170724 5 18 11.3 16.1 0.00 0.00 0.00 73 1016.7
20260507164724 6 301 11.3 14.5 0.00 0.00 0.00 50 1016.5
20260507162724 6 303 14.5 17.7 0.00 0.00 0.00 51 1016.5
20260507160724 6 288 11.3 16.1 0.00 0.00 0.00 54 1016.4
20260507154724 7 283 9.7 16.1 0.00 0.00 0.00 52 1016.4
20260507152723 7 284 14.5 20.9 0.00 0.00 0.00 47 1016.5
20260507150724 7 286 9.7 16.1 0.00 0.00 0.00 60 1016.5
20260507144723 7 288 9.7 17.7 0.00 0.00 0.00 57 1016.5
20260507142723 7 291 12.9 20.9 0.00 0.00 0.00 59 1016.5
20260507140723 7 298 19.3 25.7 0.00 0.00 0.00 60 1016.5
20260507134724 6 289 20.9 27.4 0.00 0.00 0.00 64 1016.4
20260507132723 6 296 25.7 35.4 0.00 0.00 0.00 63 1016.2
20260507124723 7 288 25.7 41.8 0.00 0.00 0.00 63 1016.0
20260507122723 7 293 24.1 32.2 0.00 0.00 0.00 57 1015.7